Weather History for LKCV - June, 2013

Change the Weather History Date:

Sunday, June 30, 2013

  Actual Average Record
Temperature  
Mean Temperature 56 °F -  
Max Temperature 62 °F - - ()
Min Temperature 51 °F - - ()
Degree Days  
Heating Degree Days 8    
Growing Degree Days 6 (Base 50)    
Moisture  
Dew Point 48 °F    
Average Humidity 74    
Maximum Humidity 94    
Minimum Humidity 52    
Precipitation  
Precipitation 0.00 in - - ()
Sea Level Pressure  
Sea Level Pressure 30.14 in    
Wind  
Wind Speed 9 mph ()    
Max Wind Speed 15 mph    
Max Gust Speed 24 mph    
Visibility 6.2 miles    
Events      
T = Trace of Precipitation, MM = Missing Value Source: Averaged Metar Reports

Daily Weather History Graph

Daily Weather History Graph

Search for Another Location

Airport or City:

Trip Planner

Search our weather history database for the weather conditions in past years. The results will help you decide how hot, cold, wet, or windy it might be!

Date:

Astronomy

Jun. 30, 2013 Rise Set
Actual Time 4:53 AM CEST 9:10 PM CEST
Civil Twilight 4:08 AM CEST 9:54 PM CEST
Nautical Twilight 3:04 AM CEST 10:59 PM CEST
Astronomical Twilight 1:34 AM CEST 12:29 AM CEST
Moon 12:15 AM CEST (6/30) 1:39 PM CEST (6/30)
Length of Visible Light 17h 45m
Length of Day
16h 17m
Waning Gibbous, 48% of the Moon is Illuminated
Jun 30
Waning Gibbous
Jul 8
New
Jul 16
First Quarter
Jul 22
Full
Jul 29
Last Quarter

Hourly Weather History & Observations

Time (CEST) Temp. Dew Point Humidity Pressure Visibility Wind Dir Wind Speed Gust Speed Precip Events Conditions
12:00 AM 59.0 °F 55.4 °F 88% 30.06 in 6.2 mi Variable 2.3 mph - N/A   Overcast
1:00 AM 59.0 °F 55.4 °F 88% 30.06 in 6.2 mi West 6.9 mph - N/A   Overcast
2:00 AM 57.2 °F 55.4 °F 94% 30.09 in 6.2 mi NW 15.0 mph - N/A   Light Drizzle
3:00 AM 55.4 °F 53.6 °F 94% 30.09 in 6.2 mi NW 13.8 mph 24.2 mph N/A   Light Drizzle
4:00 AM 53.6 °F 51.8 °F 94% 30.12 in 6.2 mi NW 12.7 mph - N/A   Overcast
5:00 AM 53.6 °F 51.8 °F 94% 30.12 in 6.2 mi WNW 9.2 mph - N/A   Overcast
6:03 AM 51.8 °F 50.0 °F 94% 30.12 in 6.2 mi WNW 11.5 mph - N/A   Overcast
7:00 AM 51.8 °F 50.0 °F 94% 30.15 in 6.2 mi WNW 12.7 mph - N/A   Overcast
8:00 AM 51.8 °F 48.2 °F 88% 30.15 in 6.2 mi WNW 10.4 mph - N/A   Overcast
9:00 AM 53.6 °F 48.2 °F 82% 30.15 in 6.2 mi WNW 10.4 mph - N/A   Mostly Cloudy
10:00 AM 55.4 °F 46.4 °F 72% 30.18 in 6.2 mi WNW 10.4 mph - N/A   Mostly Cloudy
11:00 AM 57.2 °F 42.8 °F 59% 30.18 in 6.2 mi WNW 12.7 mph - N/A   Mostly Cloudy
12:00 PM 57.2 °F 46.4 °F 67% 30.18 in 6.2 mi NW 15.0 mph - N/A   Mostly Cloudy
1:00 PM 57.2 °F 44.6 °F 63% 30.18 in 6.2 mi NW 13.8 mph - N/A   Mostly Cloudy
2:00 PM 59.0 °F 42.8 °F 55% 30.18 in 6.2 mi NW 13.8 mph - N/A   Mostly Cloudy
3:00 PM 60.8 °F 42.8 °F 52% 30.15 in 6.2 mi NW 13.8 mph - N/A   Mostly Cloudy
4:00 PM 62.6 °F 44.6 °F 52% 30.15 in - NW 13.8 mph - N/A   Clear
5:00 PM 60.8 °F 44.6 °F 55% 30.15 in - NW 12.7 mph - N/A   Clear
6:00 PM 62.6 °F 44.6 °F 52% 30.12 in - NW 12.7 mph - N/A   Clear
7:00 PM 62.6 °F 44.6 °F 52% 30.12 in - NW 11.5 mph - N/A   Clear
8:00 PM 60.8 °F 46.4 °F 59% 30.12 in - NW 5.8 mph - N/A   Clear
9:00 PM 59.0 °F 46.4 °F 63% 30.12 in - Variable 2.3 mph - N/A   Clear
10:00 PM 57.2 °F 51.8 °F 82% 30.15 in - WSW 2.3 mph - N/A   Clear
11:00 PM 55.4 °F 51.8 °F 88% 30.15 in - WSW 3.5 mph - N/A   Clear